Flag Weather past 2 weeks in Oberpullendorf, Burgenland, Austria

Now
35 °F

Chilly.


Feels Like: 29 °F
Forecast: 34 / 38 °F
Wind: 6 mph from Southeast

Location: Eisenstadt

Current Time: Nov 28, 2014 at 5:44:34 AM

Latest Report: Nov 28, 2014 at 5:00 AM


Visibility: N/A

Pressure: 30.03 "Hg

Humidity: 97%

Dew point: 34 °F

Location of OberpullendorfLocation

Historic Weather in Oberpullendorf — Graph

°F

Oberpullendorf temperature yesterday

Maximum temperature yesterday: 38 °F (at 2:00 PM)
Minimum temperature yesterday: 35 °F (at 8:00 AM)
Average temperature yesterday: 36 °F

Past Weeks' High & Low Weather Summary

 TemperatureHumidityPressure
High58 °F (Nov 14, 1:00 PM)99% (Nov 16, 10:00 PM)30.40 "Hg (Nov 16, 10:00 PM)
Low34 °F (Nov 26, 8:00 AM)60% (Nov 19, 1:00 PM)29.68 "Hg (Nov 18, 2:00 PM)
Average45 °F86%30.08 "Hg
* Reported Nov 13 5:00 AM — Nov 28 4:00 AM, Oberpullendorf, Weather by CustomWeather, © 2014

Note: Actual official high and low records may vary slightly from our data, if they occured in-between our weather recording intervals... More about our weather records

Advertising

Oberpullendorf weather history for previous 24 hours

 ConditionsComfort  
Time TempWeatherWind HumidityBarometerVisibility
4:00 AM
Nov 28
35 °FChilly.6 mph95%30.03 "HgN/A
3:00 AM34 °FChilly.6 mph95%30.03 "HgN/A
2:00 AM34 °FChilly.7 mph93%30.03 "HgN/A
1:00 AM35 °FOvercast.7 mph91%30.04 "Hg6 mi
12:00 AM35 °FChilly.7 mph89%30.04 "HgN/A
11:00 PM
Nov 27
35 °FChilly.7 mph82%30.04 "HgN/A
10:00 PM35 °FOvercast.7 mph80%30.04 "Hg6 mi
9:00 PM36 °FChilly.8 mph79%30.04 "HgN/A
8:00 PM36 °FChilly.7 mph78%30.04 "HgN/A
7:00 PM36 °FOvercast.8 mph77%30.03 "Hg6 mi
6:00 PM36 °FChilly.8 mph76%30.03 "HgN/A
5:00 PM36 °FChilly.8 mph75%30.03 "HgN/A
4:00 PM37 °FOvercast.9 mph73%30.03 "Hg6 mi
3:00 PM37 °FChilly.8 mph74%30.03 "HgN/A
2:00 PM38 °FChilly.10 mph68%30.04 "HgN/A
1:00 PM37 °FOvercast.9 mph71%30.06 "Hg6 mi
12:00 PM37 °FChilly.9 mph72%30.07 "HgN/A
11:00 AM36 °FChilly.9 mph74%30.09 "HgN/A
10:00 AM36 °FChilly.8 mph74%30.10 "HgN/A
9:00 AM35 °FChilly.7 mph74%30.10 "HgN/A
8:00 AM35 °FChilly.7 mph75%30.10 "HgN/A
7:00 AM35 °FOvercast.7 mph78%30.09 "Hg5 mi
6:00 AM36 °FOvercast.7 mph79%30.09 "Hg6 mi
5:00 AM36 °FOvercast.7 mph82%30.10 "Hg6 mi
Weather by CustomWeather, © 2014

See weather overviewHow to use our weather pages